DELTA 1 DEB, 42636

Orbit data source: Space-Track

DELTA 1 DEB, 42636 is space debris in SSO originally from a launch on Thu, 12 Jun 1975 UTC launched from the Air Force Western Test Range (AFWTR). Debris objects in space refer to the collection of defunct objects orbiting the Earth. Examples of debris include non-operational satellites, rocket bodies, and fragments generated from explosions, collisions, or faulty payload assembly.

Loading next visibility...
DELTA 1 DEB details
Identifier
42636, 1975-052LV
Orbit
SSO
Last TLE update7 hours ago
Origin
Flag of USGSFC (US)
ManufacturerUnknown
MissionSpacecraft
Bus & MotorUnknown
MassUnknown
Launch date (UTC)
1975-06-12 (50 years ago)
Launch vehicleUnknown
Launch site
Air Force Western Test Range (AFWTR)
Object type
Payload
Rocket body
Debris
Shape & HBRUnknown
Radar Cross SectionSmall (<0.1 m²)

Expand to show TLE details & history

TLE from 7 hours ago
0 DELTA 1 DEB
1 42636U 75052LV  24361.35555016  .00000531  00000-0  13201-2 0  9994
2 42636  99.7153 217.5701 0131737 357.3787 178.6274 13.21891856 50624
Epoch: 2024-12-26T08:31Z
Definitive object data (Epoch: 2024-12-26T08:31:59.533Z)
Latitude3.81424°
Longitude174.88665°
Altitude1,279.361 km
Speed7.169 km/s
True Right ascension02h 32m 53s
True Declination3° 47' 35"
Sunlit
Object was in daylight at TLE epoch
Visualization TLE readout
Latitude44.58217°
Longitude-175.82657°
Altitude1,257.469 km
Speed7.196 km/s
Apparent Right ascension03h 03m 56s
Apparent Declination6° 58' 52"
Sunlit
Object is in full shadow
Visualization observer readout
Local Sidereal Time14:57:09
Azimuth357.698° N
Elevation-43.077°
Doppler factor1
Orbital elements
Apogee altitude1,274.342 km
Perigee altitude1,075.341 km
Semi-major axis7,552.979 km
Eccentricity0.0131737
Inclination99.7153°
RAAN217.5701°
Arg. of periapsis357.3787°
True anomaly178.66297°
Mean anomaly178.6274°
Eccentric anomaly178.64525°
Mean motion3.30648 °/min
BSTAR0.0013201
Orbital period108.88 mins
Loading maneuver chart data...
Loading historical data...
Loading historical data...
Loading historical data...
Loading historical data...
Loading historical data...
Loading historical data...
Loading historical data...

DELTA 1 DEB Visibility forecast

Observer location: undefined°, undefined

Span
Click to sort rows by Start time (UTC) header in descending order
Start Az.
Max El. time (UTC)
Max El. Az.
Max El.
End time (UTC)
End Az.
12 mins2024-12-27 02:25:07.730Z36.477° NE2024-12-27 02:31:07.730Z92.672° ESE26.905°2024-12-27 02:37:07.730Z151.57° SSE
12 mins2024-12-27 04:13:07.730Z1.686° NNE2024-12-27 04:19:07.730Z282.981° WNW38.528°2024-12-27 04:25:07.730Z220.07° SW
7 mins2024-12-27 12:54:07.730Z85.118° E2024-12-27 12:57:07.730Z53.894° ENE17.521°2024-12-27 13:01:07.730Z17.096° NNE
12 mins2024-12-27 14:38:07.730Z168.673° S2024-12-27 14:43:07.730Z222.781° SW44.505°2024-12-27 14:50:07.730Z343.341° N
|